Regional Weather Roundup
Issued by NWS

Home | Current Version | Previous Version | Text Only | Print | Product List | Glossary Off
Versions: 1 2 3 4 5 6 7 8 9 10 11 12 13 14 15 16 17 18 19 20 21 22 23 24 25 26 27 28 29 30 31 32 33 34 35 36 37 38 39 40 41 42 43 44 45 46 47 48 49 50

000
ASUS43 KMKX 282221
RWRWI

WISCONSIN REGIONAL WEATHER ROUNDUP
NATIONAL WEATHER SERVICE MILWAUKEE/SULLIVAN WI
500 PM CDT SUN AUG 28 2016

NOTE: "FAIR" INDICATES FEW OR NO CLOUDS BELOW 12,000 FEET WITH NO
SIGNIFICANT WEATHER AND/OR OBSTRUCTIONS TO VISIBILITY.

WIZ001-002-006>008-014>016-023>028-282300-
NORTHWEST WISCONSIN

CITY           SKY/WX    TMP DP  RH WIND       PRES   REMARKS
SUPERIOR ARPT  MOSUNNY   70  64  81 E9        30.13F
ASHLAND        SUNNY     77  66  68 N7        30.15F
HAYWARD        SUNNY     76  64  66 SW9       30.17S
SIREN          MOSUNNY   76  66  69 S5        30.13F
CUMBERLAND     SUNNY     75  63  64 S8        30.15F
RICE LAKE      SUNNY     77  64  63 S6        30.17F
CHETEK         NOT AVBL
LADYSMITH      MOSUNNY   78  63  60 CALM      30.18F HX  80
EAU CLAIRE     SUNNY     80  65  59 S7        30.14F HX  82
MENOMONIE      SUNNY     80  67  62 SE8       30.13F HX  83
NEW RICHMOND   MOSUNNY   79  70  75 SE7       30.12F HX  81
OSCEOLA        MOSUNNY   80  73  78 SE8       30.14F HX  84
$$

WIZ003>005-009-010-017-018-282300-
NORTH CENTRAL WISCONSIN

CITY           SKY/WX    TMP DP  RH WIND       PRES   REMARKS
MANITOWISH WTR NOT AVBL
ARBOR VITAE    SUNNY     77  62  60 S3        30.20S
WOODRUFF       SUNNY     77  62  60 S3        30.20S
RHINELANDER    SUNNY     78  60  53 S5        30.20F
EAGLE RIVER    SUNNY     75  59  56 W5        30.20F
LAND O LAKES   SUNNY     75  58  55 CALM      30.21F
PHILLIPS       PTSUNNY   76  63  62 S3        30.18S
TOMAHAWK       MOSUNNY   76  62  60 S3        30.19F
MEDFORD        MOSUNNY   74  64  69 S5        30.19S
MERRILL        SUNNY     77  63  61 SW5       30.20S
$$

WIZ029-030-035-036-043>047-282300-
CENTRAL WISCONSIN

CITY           SKY/WX    TMP DP  RH WIND       PRES   REMARKS
WAUSAU         SUNNY     77  63  61 S5        30.17F
MOSINEE        MOSUNNY   77  64  65 CALM      30.20S
MARSHFIELD     MOSUNNY   78  63  59 S5        30.18S HX  80
STEVENS POINT  MOSUNNY   77  62  59 CALM      30.19S
WAUPACA        SUNNY     82  64  54 CALM      30.18S HX  83
WAUTOMA        CLOUDY    79  66  64 SE3       30.18S HX  81
WISC RAPIDS    SUNNY     80  65  59 SW8       30.19F HX  82
CAMP DOUGLAS   PTSUNNY   79  68  69 SE7       30.18S HX  81
$$

WIZ011>013-019>022-031-037>040-048>050-282300-
NORTHEAST WISCONSIN

CITY           SKY/WX    TMP DP  RH WIND       PRES   REMARKS
ANTIGO         SUNNY     76  60  57 CALM      30.20F
SHAWANO        MOSUNNY   81  63  54 CALM      30.19S HX  82
OCONTO         NOT AVBL
STURGEON BAY   SUNNY     75  64  68 SE6       30.21R
GREEN BAY      SUNNY     80  65  59 CALM      30.18S HX  82
MANITOWOC      SUNNY     72  63  73 SE10      30.21S
APPLETON       MOSUNNY   79  61  53 VRB5      30.18R HX  80
CLINTONVILLE   SUNNY     79  61  53 CALM      30.18S HX  80
OSHKOSH        SUNNY     77  65  66 E7        30.19R
$$

WIZ032>034-041-042-053>061-282300-
SOUTHWEST WISCONSIN

CITY           SKY/WX    TMP DP  RH WIND       PRES   REMARKS
LA CROSSE      SUNNY     82  69  64 E8        30.13F HX  85
SPARTA         MOSUNNY   79  66  64 SE6       30.17S HX  81
VIROQUA        MOSUNNY   76  70  80 E7        30.17F
BOSCOBEL       MOSUNNY   83  72  69 E6        30.13F HX  88
PRAIRIE DU CHI MOSUNNY   83  67  57 CALM      30.12S HX  86
PLATTEVILLE    MOSUNNY   84  72  67 E6        30.14F HX  89
$$

WIZ056-057-062-063-064-067-068-282300-
SOUTH CENTRAL WISCONSIN

CITY           SKY/WX    TMP DP  RH WIND       PRES   REMARKS
REEDSBURG      NOT AVBL
BARABOO/DELLS  MOSUNNY   77  67  70 SE5       30.18S
LONE ROCK      SUNNY     80  71  74 E6        30.16F HX  84
MINERAL POINT  SUNNY     84  68  58 CALM      30.16F HX  87
MADISON        PTSUNNY   78  69  73 E8        30.17S HX  80
MIDDLETON      SUNNY     82  69  65 E8        30.18S HX  85
WATERTOWN      MOSUNNY   80  69  68 CALM      30.18S HX  83
MONROE         MOSUNNY   82  68  61 E6        30.15F HX  85
JANESVILLE     MOSUNNY   84  70  61 E6        30.16S HX  88
$$

WIZ051-052-058>065-066-070>072-282300-
SOUTHEAST WISCONSIN

CITY           SKY/WX    TMP DP  RH WIND       PRES   REMARKS
MILWAUKEE      MOSUNNY   75  66  73 E9        30.20F
WAUKESHA       PTSUNNY   77  66  69 E12       30.20F
MILWAUKEE/TIMM SUNNY     75  63  64 E7        30.21S
RACINE         SUNNY     74  68  81 SE6       30.21F
BURLINGTON     SUNNY     79  67  68 E7        30.18F HX  81
KENOSHA        SUNNY     76  68  76 E7        30.19F
FOND DU LAC    SUNNY     79  65  62 CALM      30.19S HX  81
SHEBOYGAN      CLOUDY    74  65  73 S12       30.20S
WEST BEND      SUNNY     73  64  73 SE7       30.20S
JUNEAU         SUNNY     78  66  66 E5        30.21S HX  80
$$

LSZ147-162-282300-
LAKE SUPERIOR

STATION/POSITION TIME  TEMP    WIND        PRES    WAVE
                       AIR SEA DIR/SP/G            HT/PER
                 (UTC) (F)     (DEG/KT/KT) (MB)    (FT/S)
W MID LAKE BUOY  2150   70 69   CALM  /  2 1021.6F   1
DEVILS ISLAND    2200   66      60/  9/ 10 1021.4F
PORT WING        2100   67      20/ 13/ 15 1021.0
SAXON HARBOR     2100   69      40/  8/  8 1021.7S
$$

LMZ867-665-643>646-282300-
LAKE MICHIGAN

STATION/POSITION TIME  TEMP    WIND        PRES    WAVE
                       AIR SEA DIR/SP/G            HT/PER
                 (UTC) (F)     (DEG/KT/KT) (MB)    (FT/S)
CHAMBERS ISLAND  2100   75     170/  2/  8 1021.7S
N MID LAKE BUOY  2150   71 72  200/  8/  8 1021.9R   1
NORTHPORT PIER   2100   72     140/  7/  9 1021.7
KEWAUNEE LAKESHO 2200   67                 1022.1R
SHEBOYGAN LAKESH 2200   67     180/ 10/ 10 1022.2F
PORT WASHINGTON  2140   74     190/  4/  6 1023.4S
ATWATER BUOY     2200   70      90/  4/  6   N/A
MILWAUKEE LAKESH 2210   70     160/  2/  2   N/A
S MID LAKE BUOY  2150   72 76   40/  8/  8 1021.7F   1
KENOSHA   LAKESH 2200   69      10/  4/  4 1021.7F
$$

TC  - TEMPERATURE IN CELSIUS
VSB - VISIBILITY IN STATUTE MILES
WCI - WIND CHILL INDEX
HX  - HEAT INDEX




USA.gov is the U.S. government's official web portal to all federal, state and local government web resources and services.